Weather History for Plattsmouth, NE

Change the Weather History Date:

Tuesday, January 21, 2014

  Actual Average (KOFF) Record (KOFF)
Temperature  
Mean Temperature 11 °F -  
Max Temperature 26 °F 31 °F 53 °F (2002)
Min Temperature -3 °F 14 °F -2 °F (2014)
Degree Days  
Heating Degree Days 54    
Moisture  
Dew Point -9 °F    
Average Humidity 44    
Maximum Humidity 67    
Minimum Humidity 26    
Precipitation  
Precipitation 0.00 in - - ()
Sea Level Pressure  
Sea Level Pressure 30.29 in    
Wind  
Wind Speed 11 mph (SW)    
Max Wind Speed 20 mph    
Max Gust Speed 29 mph    
Visibility 10 miles    
Events      
Averages and records for this station are not official NWS values.
T = Trace of Precipitation, MM = Missing Value Source: NWS Daily Summary

Daily Weather History Graph

Daily Weather History Graph

Search for Another Location

Airport:

Trip Planner

Search our weather history database for the weather conditions in past years. The results will help you decide how hot, cold, wet, or windy it might be!

Date:

Astronomy

Jan. 21, 2014 Rise Set
Actual Time 7:43 AM CST 5:27 PM CST
Civil Twilight 7:13 AM CST 5:57 PM CST
Nautical Twilight 6:39 AM CST 6:30 PM CST
Astronomical Twilight 6:07 AM CST 7:03 PM CST
Moon 11:04 PM CST (1/21) 10:10 AM CST (1/21)
Length of Visible Light 10h 44m
Length of Day
9h 44m
Waning Gibbous, 74% of the Moon is Illuminated
Jan 21
Waning Gibbous
Jan 23
Last Quarter
Jan 30
New
Feb 6
First Quarter
Feb 14
Full

Hourly Weather History & Observations

Time (CST) Temp. Windchill Dew Point Humidity Pressure Visibility Wind Dir Wind Speed Gust Speed Precip Events Conditions
12:15 AM 5.5 °F -13.5 °F -5.8 °F 60% 30.43 in 10.0 mi NNW 17.3 mph 24.2 mph N/A   Clear
12:35 AM 5.0 °F -14.2 °F -6.5 °F 59% 30.45 in 10.0 mi NNW 17.3 mph 24.2 mph N/A   Clear
12:55 AM 4.3 °F -16.2 °F -8.5 °F 56% 30.46 in 10.0 mi NNW 19.6 mph 25.3 mph N/A   Clear
1:15 AM 3.6 °F -15.4 °F -9.4 °F 55% 30.45 in 10.0 mi North 16.1 mph 28.8 mph N/A   Clear
1:35 AM 3.2 °F -15.9 °F -8.7 °F 58% 30.45 in 10.0 mi NNW 16.1 mph 26.5 mph N/A   Clear
1:55 AM 2.5 °F -16.8 °F -9.0 °F 59% 30.46 in 10.0 mi NNW 16.1 mph 23.0 mph N/A   Clear
2:15 AM 2.1 °F -16.0 °F -8.9 °F 60% 30.48 in 10.0 mi NNW 13.8 mph 19.6 mph N/A   Clear
2:35 AM 1.4 °F -15.3 °F -9.9 °F 59% 30.48 in 10.0 mi NNW 11.5 mph 19.6 mph N/A   Clear
2:55 AM 1.2 °F -18.4 °F -11.6 °F 55% 30.49 in 10.0 mi NNW 16.1 mph - N/A   Clear
3:15 AM 1.0 °F -16.6 °F -11.9 °F 55% 30.50 in 10.0 mi NNW 12.7 mph - N/A   Clear
3:35 AM 0.5 °F -15.6 °F -12.3 °F 55% 30.50 in 10.0 mi NNW 10.4 mph 17.3 mph N/A   Clear
3:55 AM 0.1 °F -16.9 °F -11.9 °F 57% 30.50 in 10.0 mi NNW 11.5 mph - N/A   Clear
4:15 AM -0.4 °F -17.6 °F -11.7 °F 59% 30.50 in 10.0 mi NW 11.5 mph - N/A   Clear
4:35 AM -0.6 °F -14.9 °F -12.3 °F 58% 30.50 in 10.0 mi NNW 8.1 mph - N/A   Clear
4:55 AM -1.5 °F -14.7 °F -11.7 °F 62% 30.50 in 10.0 mi NW 6.9 mph - N/A   Clear
5:15 AM -2.2 °F -15.6 °F -11.4 °F 65% 30.49 in 10.0 mi NW 6.9 mph - N/A   Clear
5:35 AM -1.7 °F -13.5 °F -11.7 °F 62% 30.49 in 10.0 mi NW 5.8 mph - N/A   Clear
5:55 AM -2.0 °F -13.9 °F -12.1 °F 62% 30.48 in 10.0 mi NNW 5.8 mph - N/A   Clear
6:15 AM -2.6 °F -16.0 °F -12.1 °F 64% 30.48 in 10.0 mi NW 6.9 mph - N/A   Clear
6:35 AM -2.9 °F -11.2 °F -12.1 °F 65% 30.47 in 10.0 mi NW 3.5 mph - N/A   Clear
6:55 AM -3.1 °F -13.5 °F -11.7 °F 67% 30.47 in 10.0 mi NW 4.6 mph - N/A   Clear
7:15 AM -2.9 °F -15.0 °F -11.6 °F 67% 30.47 in 10.0 mi WNW 5.8 mph - N/A   Clear
7:35 AM -2.6 °F -14.6 °F -11.4 °F 66% 30.46 in 10.0 mi NW 5.8 mph - N/A   Clear
7:55 AM -1.7 °F -11.8 °F -11.7 °F 62% 30.46 in 10.0 mi NW 4.6 mph - N/A   Clear
8:15 AM -1.3 °F -13.1 °F -11.9 °F 61% 30.46 in 10.0 mi WNW 5.8 mph - N/A   Clear
8:35 AM -0.6 °F -10.6 °F -11.6 °F 60% 30.46 in 10.0 mi NW 4.6 mph - N/A   Clear
8:55 AM -0.2 °F - -11.9 °F 58% 30.45 in 10.0 mi Calm Calm - N/A   Scattered Clouds
9:15 AM 0.3 °F - -12.1 °F 56% 30.45 in 10.0 mi Calm Calm - N/A   Scattered Clouds
9:35 AM 0.9 °F - -12.3 °F 54% 30.44 in 10.0 mi Calm Calm - N/A   Scattered Clouds
9:55 AM 1.0 °F - -13.0 °F 52% 30.43 in 10.0 mi Calm Calm - N/A   Scattered Clouds
10:15 AM 2.1 °F - -11.9 °F 52% 30.43 in 10.0 mi Calm Calm - N/A   Scattered Clouds
10:35 AM 3.2 °F - -11.4 °F 51% 30.42 in 10.0 mi Calm Calm - N/A   Scattered Clouds
10:55 AM 4.6 °F -6.0 °F -11.0 °F 48% 30.42 in 10.0 mi South 5.8 mph - N/A   Clear
11:15 AM 6.1 °F -5.6 °F -11.0 °F 45% 30.41 in 10.0 mi SSW 6.9 mph - N/A   Clear
11:35 AM 7.7 °F -3.7 °F -11.7 °F 41% 30.39 in 10.0 mi South 6.9 mph - N/A   Clear
11:55 AM 9.3 °F -3.8 °F -12.6 °F 36% 30.36 in 10.0 mi South 9.2 mph - N/A   Clear
12:15 PM 10.4 °F -1.5 °F -12.3 °F 35% 30.35 in 10.0 mi South 8.1 mph - N/A   Clear
12:35 PM 11.8 °F -1.5 °F -12.6 °F 33% 30.33 in 10.0 mi SSW 10.4 mph - N/A   Clear
12:55 PM 12.6 °F 2.2 °F -12.8 °F 31% 30.28 in 10.0 mi South 6.9 mph - N/A   Clear
1:15 PM 13.8 °F 0.2 °F -12.8 °F 30% 30.26 in 10.0 mi South 11.5 mph 16.1 mph N/A   Scattered Clouds
1:35 PM 14.4 °F 0.2 °F -13.4 °F 28% 30.23 in 10.0 mi South 12.7 mph 17.3 mph N/A   Clear
1:55 PM 15.1 °F 0.5 °F -13.2 °F 28% 30.19 in 10.0 mi South 13.8 mph - N/A   Mostly Cloudy
2:15 PM 14.5 °F 0.5 °F -13.7 °F 28% 30.18 in 10.0 mi South 12.7 mph - N/A   Overcast
2:35 PM 15.6 °F 3.2 °F -12.5 °F 28% 30.16 in 10.0 mi South 10.4 mph - N/A   Overcast
2:55 PM 16.7 °F 2.6 °F -12.3 °F 27% 30.16 in 10.0 mi South 13.8 mph - N/A   Overcast
3:15 PM 16.7 °F 3.2 °F -12.6 °F 27% 30.13 in 10.0 mi SSE 12.7 mph 18.4 mph N/A   Overcast
3:35 PM 17.1 °F 4.3 °F -12.8 °F 26% 30.12 in 10.0 mi SSE 11.5 mph 17.3 mph N/A   Overcast
3:55 PM 17.2 °F 3.3 °F -12.5 °F 26% 30.12 in 10.0 mi SSE 13.8 mph - N/A   Overcast
4:15 PM 17.6 °F 5.7 °F -12.1 °F 26% 30.13 in 10.0 mi SSE 10.4 mph - N/A   Mostly Cloudy
4:35 PM 18.3 °F 4.6 °F -11.2 °F 27% 30.12 in 10.0 mi South 13.8 mph - N/A   Overcast
4:55 PM 18.0 °F 4.2 °F -10.7 °F 28% 30.13 in 10.0 mi South 13.8 mph 18.4 mph N/A   Overcast
5:15 PM 18.1 °F 4.4 °F -10.1 °F 28% 30.12 in 10.0 mi South 13.8 mph - N/A   Overcast
5:35 PM 18.3 °F 6.6 °F -9.4 °F 29% 30.11 in 10.0 mi SSE 10.4 mph - N/A   Overcast
5:55 PM 17.4 °F 6.2 °F -9.4 °F 30% 30.10 in 10.0 mi SSE 9.2 mph - N/A   Scattered Clouds
6:15 PM 18.3 °F 6.6 °F -8.0 °F 31% 30.10 in 10.0 mi South 10.4 mph - N/A   Mostly Cloudy
6:35 PM 19.4 °F 7.2 °F -7.8 °F 30% 30.10 in 10.0 mi South 11.5 mph - N/A   Overcast
6:55 PM 19.8 °F 8.3 °F -7.4 °F 30% 30.09 in 10.0 mi South 10.4 mph - N/A   Overcast
7:15 PM 19.9 °F 8.6 °F -6.3 °F 31% 30.09 in 10.0 mi South 10.4 mph - N/A   Overcast
7:35 PM 19.9 °F 7.9 °F -6.2 °F 31% 30.08 in 10.0 mi SSE 11.5 mph - N/A   Overcast
7:55 PM 20.3 °F 10.6 °F -6.0 °F 31% 30.09 in 10.0 mi SSE 8.1 mph - N/A   Overcast
8:15 PM 20.3 °F 9.8 °F -5.6 °F 32% 30.08 in 10.0 mi South 9.2 mph - N/A   Overcast
8:35 PM 20.5 °F 8.0 °F -5.1 °F 32% 30.07 in 10.0 mi South 12.7 mph - N/A   Overcast
8:55 PM 20.8 °F 10.4 °F -4.9 °F 32% 30.07 in 10.0 mi South 9.2 mph - N/A   Overcast
9:15 PM 21.2 °F 10.9 °F -5.1 °F 31% 30.08 in 10.0 mi South 9.2 mph - N/A   Overcast
9:35 PM 21.7 °F 12.3 °F -5.1 °F 31% 30.07 in 10.0 mi SSW 8.1 mph - N/A   Overcast
9:55 PM 21.9 °F 10.4 °F -4.4 °F 32% 30.06 in 10.0 mi South 11.5 mph - N/A   Overcast
10:15 PM 22.3 °F 12.2 °F -3.5 °F 32% 30.04 in 10.0 mi SSW 9.2 mph - N/A   Overcast
10:35 PM 22.8 °F 14.5 °F -1.8 °F 34% 30.05 in 10.0 mi SW 6.9 mph - N/A   Overcast
10:55 PM 23.0 °F 14.7 °F -0.9 °F 35% 30.05 in 10.0 mi SW 6.9 mph - N/A   Overcast
11:15 PM 24.3 °F 15.4 °F 2.3 °F 39% 30.05 in 10.0 mi West 8.1 mph - N/A   Overcast
11:35 PM 25.7 °F 18.0 °F 5.2 °F 42% 30.04 in 10.0 mi West 6.9 mph - N/A   Overcast
11:55 PM 26.1 °F 17.6 °F 6.4 °F 43% 30.05 in 10.0 mi West 8.1 mph - N/A   Overcast